Year,Month,Day,Hour,Minute,Value (Times are PST for temperature in C)
2015,07,01,00,00,18.20
2015,07,01,00,01,18.20
2015,07,01,00,02,18.20
2015,07,01,00,03,18.20
2015,07,01,00,04,18.20
2015,07,01,00,05,18.20
2015,07,01,00,06,18.20
2015,07,01,00,07,18.20
2015,07,01,00,08,18.20
2015,07,01,00,09,18.20
2015,07,01,00,10,18.20
2015,07,01,00,11,18.10
2015,07,01,00,12,18.10
2015,07,01,00,13,18.00
2015,07,01,00,14,18.00
2015,07,01,00,15,17.90
2015,07,01,00,16,17.80
2015,07,01,00,17,17.70
2015,07,01,00,18,17.70
2015,07,01,00,19,17.60
2015,07,01,00,20,17.60
2015,07,01,00,21,17.50
2015,07,01,00,22,17.50
2015,07,01,00,23,17.50
2015,07,01,00,24,17.50
2015,07,01,00,25,17.40
2015,07,01,00,26,17.40
2015,07,01,00,27,17.40
2015,07,01,00,28,17.40
2015,07,01,00,29,17.30
2015,07,01,00,30,17.30
2015,07,01,00,31,17.30
2015,07,01,00,32,17.30
2015,07,01,00,33,17.30
2015,07,01,00,34,17.30
2015,07,01,00,35,17.30
2015,07,01,00,36,17.30
2015,07,01,00,37,17.30
2015,07,01,00,38,17.30
2015,07,01,00,39,17.30
2015,07,01,00,40,17.30
2015,07,01,00,41,17.30
2015,07,01,00,42,17.30
2015,07,01,00,43,17.30
2015,07,01,00,44,17.30
2015,07,01,00,45,17.30
2015,07,01,00,46,17.30
2015,07,01,00,47,17.20
2015,07,01,00,48,17.20
2015,07,01,00,49,17.20
2015,07,01,00,50,17.20
2015,07,01,00,51,17.20
2015,07,01,00,52,17.20
2015,07,01,00,53,17.20
2015,07,01,00,54,17.20
2015,07,01,00,55,17.20
2015,07,01,00,56,17.20
2015,07,01,00,57,17.10
2015,07,01,00,58,17.10
2015,07,01,00,59,17.20
2015,07,01,01,00,17.20
2015,07,01,01,01,17.30
2015,07,01,01,02,17.30
2015,07,01,01,03,17.30
2015,07,01,01,04,17.30
2015,07,01,01,05,17.30
2015,07,01,01,06,17.30
2015,07,01,01,07,17.30
2015,07,01,01,08,17.30
2015,07,01,01,09,17.40
2015,07,01,01,10,17.40
2015,07,01,01,11,17.40
2015,07,01,01,12,17.30
2015,07,01,01,13,17.40
2015,07,01,01,14,17.40
2015,07,01,01,15,17.40
2015,07,01,01,16,17.40
2015,07,01,01,17,17.40
2015,07,01,01,18,17.30
2015,07,01,01,19,17.30
2015,07,01,01,20,17.30
2015,07,01,01,21,17.30
2015,07,01,01,22,17.20
2015,07,01,01,23,17.20
2015,07,01,01,24,17.10
2015,07,01,01,25,17.10
2015,07,01,01,26,17.00
2015,07,01,01,27,17.00
2015,07,01,01,28,16.90
2015,07,01,01,29,16.90
2015,07,01,01,30,16.80
2015,07,01,01,31,16.80
2015,07,01,01,32,16.80
2015,07,01,01,33,16.70
2015,07,01,01,34,16.70
2015,07,01,01,35,16.70
2015,07,01,01,36,16.70
2015,07,01,01,37,16.60
2015,07,01,01,38,16.60
2015,07,01,01,39,16.60
2015,07,01,01,40,16.60
2015,07,01,01,41,16.60
2015,07,01,01,42,16.50
2015,07,01,01,43,16.50
2015,07,01,01,44,16.50
2015,07,01,01,45,16.40
2015,07,01,01,46,16.40
2015,07,01,01,47,16.40
2015,07,01,01,48,16.40
2015,07,01,01,49,16.40
2015,07,01,01,50,16.40
2015,07,01,01,51,16.40
2015,07,01,01,52,16.30
2015,07,01,01,53,16.30
2015,07,01,01,54,16.30
2015,07,01,01,55,16.30
2015,07,01,01,56,16.30
2015,07,01,01,57,16.30
2015,07,01,01,58,16.20
2015,07,01,01,59,16.20
2015,07,01,02,00,16.20
2015,07,01,02,01,16.20
2015,07,01,02,02,16.20
2015,07,01,02,03,16.10
2015,07,01,02,04,16.10
2015,07,01,02,05,16.10
2015,07,01,02,06,16.10
2015,07,01,02,07,16.10
2015,07,01,02,08,16.10
2015,07,01,02,09,16.20
2015,07,01,02,10,16.20
2015,07,01,02,11,16.20
2015,07,01,02,12,16.20
2015,07,01,02,13,16.20
2015,07,01,02,14,16.20
2015,07,01,02,15,16.20
2015,07,01,02,16,16.20
2015,07,01,02,17,16.20
2015,07,01,02,18,16.20
2015,07,01,02,19,16.20
2015,07,01,02,20,16.20
2015,07,01,02,21,16.20
2015,07,01,02,22,16.20
2015,07,01,02,23,16.20
2015,07,01,02,24,16.20
2015,07,01,02,25,16.10
2015,07,01,02,26,16.10
2015,07,01,02,27,16.10
2015,07,01,02,28,16.00
2015,07,01,02,29,16.00
2015,07,01,02,30,15.90
2015,07,01,02,31,15.90
2015,07,01,02,32,15.90
2015,07,01,02,33,15.90
2015,07,01,02,34,15.80
2015,07,01,02,35,15.80
2015,07,01,02,36,15.80
2015,07,01,02,37,15.80
2015,07,01,02,38,15.80
2015,07,01,02,39,15.80
2015,07,01,02,40,15.80
2015,07,01,02,41,15.80
2015,07,01,02,42,15.80
2015,07,01,02,43,15.80
2015,07,01,02,44,15.80
2015,07,01,02,45,15.70
2015,07,01,02,46,15.70
2015,07,01,02,47,15.70
2015,07,01,02,48,15.70
2015,07,01,02,49,15.70
2015,07,01,02,50,15.70
2015,07,01,02,51,15.70
2015,07,01,02,52,15.70
2015,07,01,02,53,15.70
2015,07,01,02,54,15.70
2015,07,01,02,55,15.70
2015,07,01,02,56,15.70
2015,07,01,02,57,15.60
2015,07,01,02,58,15.60
2015,07,01,02,59,15.60
2015,07,01,03,00,15.60
2015,07,01,03,01,15.60
2015,07,01,03,02,15.60
2015,07,01,03,06,15.50
2015,07,01,03,07,15.50
2015,07,01,03,08,15.50
2015,07,01,03,09,15.40
2015,07,01,03,10,15.40
2015,07,01,03,11,15.40
2015,07,01,03,12,15.40
2015,07,01,03,13,15.40
2015,07,01,03,14,15.40
2015,07,01,03,15,15.40
2015,07,01,03,16,15.40
2015,07,01,03,17,15.40
2015,07,01,03,18,15.40
2015,07,01,03,19,15.40
2015,07,01,03,20,15.40
2015,07,01,03,21,15.40
2015,07,01,03,22,15.40
2015,07,01,03,23,15.40
2015,07,01,03,24,15.30
2015,07,01,03,25,15.30
2015,07,01,03,26,15.30
2015,07,01,03,27,15.30
2015,07,01,03,28,15.30
2015,07,01,03,29,15.30
2015,07,01,03,30,15.30
2015,07,01,03,31,15.30
2015,07,01,03,32,15.30
2015,07,01,03,33,15.30
2015,07,01,03,34,15.30
2015,07,01,03,35,15.30
2015,07,01,03,36,15.30
2015,07,01,03,37,15.30
2015,07,01,03,38,15.30
2015,07,01,03,39,15.30
2015,07,01,03,40,15.30
2015,07,01,03,41,15.30
2015,07,01,03,42,15.20
2015,07,01,03,43,15.20
2015,07,01,03,44,15.20
2015,07,01,03,45,15.20
2015,07,01,03,46,15.20
2015,07,01,03,47,15.20
2015,07,01,03,48,15.20
2015,07,01,03,49,15.20
2015,07,01,03,50,15.20
2015,07,01,03,51,15.20
2015,07,01,06,06,15.50
2015,07,01,06,07,15.50
2015,07,01,06,08,15.60
2015,07,01,06,09,15.60
2015,07,01,06,10,15.60
2015,07,01,06,11,15.60
2015,07,01,06,12,15.70
2015,07,01,06,13,15.70
2015,07,01,06,14,15.70
2015,07,01,06,15,15.80
2015,07,01,06,16,15.80
2015,07,01,06,17,15.90
2015,07,01,06,18,15.90
2015,07,01,06,19,15.90
2015,07,01,06,20,16.00
2015,07,01,06,21,16.10
2015,07,01,06,22,16.10
2015,07,01,06,23,16.20
2015,07,01,06,24,16.30
2015,07,01,06,25,16.40
2015,07,01,06,26,16.50
2015,07,01,06,27,16.60
2015,07,01,06,28,16.70
2015,07,01,06,29,16.80
2015,07,01,06,30,16.80
2015,07,01,06,31,16.90
2015,07,01,06,32,16.90
2015,07,01,06,33,17.00
2015,07,01,06,34,17.00
2015,07,01,06,35,17.10
2015,07,01,06,36,17.20
2015,07,01,06,37,17.20
2015,07,01,06,38,17.30
2015,07,01,06,39,17.30
2015,07,01,06,40,17.30
2015,07,01,06,41,17.40
2015,07,01,06,42,17.50
2015,07,01,06,43,17.50
2015,07,01,06,44,17.60
2015,07,01,06,45,17.70
2015,07,01,06,46,17.80
2015,07,01,06,47,17.80
2015,07,01,06,48,17.90
2015,07,01,06,49,18.00
2015,07,01,06,50,18.00
2015,07,01,06,51,18.10
2015,07,01,06,52,18.20
2015,07,01,06,53,18.20
2015,07,01,06,54,18.30
2015,07,01,06,55,18.40
2015,07,01,06,56,18.40
2015,07,01,06,57,18.50
2015,07,01,06,58,18.60
2015,07,01,06,59,18.60
2015,07,01,07,00,18.70
2015,07,01,07,01,18.70
2015,07,01,07,02,18.70
2015,07,01,07,03,18.70
2015,07,01,07,04,18.80
2015,07,01,07,05,18.80
2015,07,01,07,06,18.80
2015,07,01,07,07,18.90
2015,07,01,07,08,18.90
2015,07,01,07,09,19.00
2015,07,01,07,10,19.00
2015,07,01,07,11,19.10
2015,07,01,07,12,19.20
2015,07,01,07,13,19.20
2015,07,01,07,14,19.20
2015,07,01,07,15,19.20
2015,07,01,07,16,19.20
2015,07,01,07,17,19.20
2015,07,01,07,18,19.20
2015,07,01,07,19,19.20
2015,07,01,07,20,19.30
2015,07,01,07,21,19.30
2015,07,01,07,22,19.40
2015,07,01,07,23,19.50
2015,07,01,07,24,19.60
2015,07,01,07,25,19.60
2015,07,01,07,26,19.60
2015,07,01,07,27,19.50
2015,07,01,07,28,19.50
2015,07,01,07,29,19.40
2015,07,01,07,30,19.40
2015,07,01,07,31,19.40
2015,07,01,07,32,19.40
2015,07,01,07,33,19.30
2015,07,01,07,34,19.30
2015,07,01,07,35,19.30
2015,07,01,07,36,19.30
2015,07,01,07,37,19.30
2015,07,01,07,38,19.30
2015,07,01,07,39,19.30
2015,07,01,07,40,19.40
2015,07,01,07,41,19.60
2015,07,01,07,42,19.70
2015,07,01,07,43,19.80
2015,07,01,07,44,19.90
2015,07,01,07,45,20.00
2015,07,01,07,46,20.10
2015,07,01,07,47,20.20
2015,07,01,07,48,20.20
2015,07,01,07,49,20.20
2015,07,01,07,50,20.20
2015,07,01,07,51,20.10
2015,07,01,07,52,20.10
2015,07,01,07,53,20.10
2015,07,01,07,54,20.10
2015,07,01,07,55,20.10
2015,07,01,07,56,20.10
2015,07,01,07,57,20.10
2015,07,01,07,58,20.10
2015,07,01,07,59,20.10
2015,07,01,08,00,20.10
2015,07,01,08,01,20.10
2015,07,01,08,02,20.10
2015,07,01,08,03,20.10
2015,07,01,08,04,20.20
2015,07,01,08,05,20.20
2015,07,01,08,06,20.30
2015,07,01,08,07,20.40
2015,07,01,08,08,20.60
2015,07,01,08,09,20.70
2015,07,01,08,10,20.80
2015,07,01,08,11,20.90
2015,07,01,08,12,21.00
2015,07,01,08,13,21.20
2015,07,01,08,14,21.30
2015,07,01,08,15,21.40
2015,07,01,08,16,21.50
2015,07,01,08,17,21.60
2015,07,01,08,18,21.70
2015,07,01,08,19,21.60
2015,07,01,08,20,21.50
2015,07,01,08,21,21.40
2015,07,01,08,22,21.40
2015,07,01,08,23,21.40
2015,07,01,08,24,21.30
2015,07,01,08,25,21.30
2015,07,01,08,26,21.30
2015,07,01,08,27,21.30
2015,07,01,08,28,21.30
2015,07,01,08,29,21.40
2015,07,01,08,30,21.40
2015,07,01,08,31,21.50
2015,07,01,08,32,21.50
2015,07,01,08,33,21.60
2015,07,01,08,34,21.60
2015,07,01,08,35,21.60
2015,07,01,08,36,21.70
2015,07,01,08,37,21.70
2015,07,01,08,38,21.60
2015,07,01,08,39,21.60
2015,07,01,08,40,21.60
2015,07,01,08,41,21.60
2015,07,01,08,42,21.60
2015,07,01,08,43,21.50
2015,07,01,08,44,21.50
2015,07,01,08,45,21.40
2015,07,01,08,46,21.40
2015,07,01,08,47,21.30
2015,07,01,08,48,21.30
2015,07,01,08,49,21.30
2015,07,01,08,50,21.30
2015,07,01,08,51,21.40
2015,07,01,08,52,21.60
2015,07,01,08,53,21.70
2015,07,01,08,54,21.80
2015,07,01,08,55,21.90
2015,07,01,08,56,21.90
2015,07,01,08,57,21.90
2015,07,01,08,58,22.00
2015,07,01,08,59,21.90
2015,07,01,09,00,21.90
2015,07,01,09,01,21.90
2015,07,01,09,02,22.00
2015,07,01,09,03,22.00
2015,07,01,09,04,21.90
2015,07,01,09,05,21.90
2015,07,01,09,06,21.90
2015,07,01,09,07,21.90
2015,07,01,09,08,21.90
2015,07,01,09,09,22.00
2015,07,01,09,10,22.10
2015,07,01,09,11,22.10
2015,07,01,09,12,22.20
2015,07,01,09,13,22.20
2015,07,01,09,14,22.20
2015,07,01,09,15,22.30
2015,07,01,09,16,22.30
2015,07,01,09,17,22.40
2015,07,01,09,18,22.50
2015,07,01,09,19,22.50
2015,07,01,09,20,22.50
2015,07,01,09,21,22.50
2015,07,01,09,22,22.40
2015,07,01,09,23,22.40
2015,07,01,09,24,22.30
2015,07,01,09,25,22.20
2015,07,01,09,26,22.20
2015,07,01,09,27,22.20
2015,07,01,09,28,22.30
2015,07,01,09,29,22.30
2015,07,01,09,30,22.40
2015,07,01,09,31,22.40
2015,07,01,09,32,22.50
2015,07,01,09,33,22.50
2015,07,01,09,34,22.60
2015,07,01,09,35,22.70
2015,07,01,09,36,22.80
2015,07,01,09,37,22.80
2015,07,01,09,38,22.90
2015,07,01,09,39,22.90
2015,07,01,09,40,23.00
2015,07,01,09,41,23.00
2015,07,01,09,42,23.00
2015,07,01,09,43,23.00
2015,07,01,09,44,23.00
2015,07,01,09,45,23.00
2015,07,01,09,46,23.00
2015,07,01,09,47,23.10
2015,07,01,09,48,23.20
2015,07,01,09,49,23.30
2015,07,01,09,50,23.40
2015,07,01,09,51,23.50
2015,07,01,09,52,23.60
2015,07,01,09,53,23.60
2015,07,01,09,54,23.60
2015,07,01,09,55,23.50
2015,07,01,09,56,23.50
2015,07,01,09,57,23.40
2015,07,01,09,58,23.40
2015,07,01,09,59,23.40
2015,07,01,10,00,23.40
2015,07,01,10,01,23.40
2015,07,01,10,02,23.40
2015,07,01,10,03,23.50
2015,07,01,10,04,23.50
2015,07,01,10,05,23.50
2015,07,01,10,06,23.40
2015,07,01,10,07,23.40
2015,07,01,10,08,23.40
2015,07,01,10,09,23.40
2015,07,01,10,10,23.50
2015,07,01,10,11,23.60
2015,07,01,10,12,23.70
2015,07,01,10,13,23.80
2015,07,01,10,14,24.00
2015,07,01,10,15,24.20
2015,07,01,10,16,24.30
2015,07,01,10,17,24.40
2015,07,01,10,18,24.50
2015,07,01,10,19,24.60
2015,07,01,10,20,24.70
2015,07,01,10,21,24.70
2015,07,01,10,22,24.70
2015,07,01,10,23,24.60
2015,07,01,10,24,24.60
2015,07,01,10,25,24.60
2015,07,01,10,26,24.50
2015,07,01,10,27,24.50
2015,07,01,10,28,24.40
2015,07,01,10,29,24.40
2015,07,01,10,30,24.40
2015,07,01,10,31,24.40
2015,07,01,10,32,24.40
2015,07,01,10,33,24.50
2015,07,01,10,34,24.60
2015,07,01,10,35,24.70
2015,07,01,10,36,24.80
2015,07,01,10,37,24.90
2015,07,01,10,38,24.90
2015,07,01,10,39,24.90
2015,07,01,10,40,24.90
2015,07,01,10,41,24.80
2015,07,01,10,42,24.80
2015,07,01,10,43,24.80
2015,07,01,10,44,24.70
2015,07,01,10,45,24.70
2015,07,01,10,46,24.80
2015,07,01,10,47,24.80
2015,07,01,10,48,24.90
2015,07,01,10,49,25.00
2015,07,01,10,50,25.00
2015,07,01,10,51,25.10
2015,07,01,10,52,25.20
2015,07,01,10,53,25.30
2015,07,01,10,54,25.30
2015,07,01,10,55,25.40
2015,07,01,10,56,25.50
2015,07,01,10,57,25.60
2015,07,01,10,58,25.70
2015,07,01,10,59,25.80
2015,07,01,11,00,25.80
2015,07,01,11,01,25.60
2015,07,01,11,02,25.60
2015,07,01,11,03,25.50
2015,07,01,11,04,25.50
2015,07,01,11,05,25.50
2015,07,01,11,06,25.60
2015,07,01,11,07,25.70
2015,07,01,11,08,25.70
2015,07,01,11,09,25.80
2015,07,01,11,10,25.80
2015,07,01,11,11,25.90
2015,07,01,11,12,26.00
2015,07,01,11,13,26.10
2015,07,01,11,14,26.20
2015,07,01,11,15,26.30
2015,07,01,11,16,26.30
2015,07,01,11,17,26.20
2015,07,01,11,18,26.10
2015,07,01,11,19,26.20
2015,07,01,11,20,26.20
2015,07,01,11,21,26.10
2015,07,01,11,22,26.00
2015,07,01,11,23,25.90
2015,07,01,11,24,25.70
2015,07,01,11,25,25.60
2015,07,01,11,26,25.50
2015,07,01,11,27,25.30
2015,07,01,11,28,25.20
2015,07,01,11,29,25.20
2015,07,01,11,30,25.30
2015,07,01,11,31,25.30
2015,07,01,11,32,25.20
2015,07,01,11,33,25.20
2015,07,01,11,34,25.20
2015,07,01,11,35,25.30
2015,07,01,11,36,25.40
2015,07,01,11,37,25.50
2015,07,01,11,38,25.50
2015,07,01,11,39,25.60
2015,07,01,11,40,25.60
2015,07,01,11,41,25.50
2015,07,01,11,42,25.30
2015,07,01,11,43,25.10
2015,07,01,11,44,24.90
2015,07,01,11,45,24.80
2015,07,01,11,46,24.80
2015,07,01,11,47,24.90
2015,07,01,11,48,25.10
2015,07,01,11,49,25.20
2015,07,01,11,50,25.30
2015,07,01,11,51,25.30
2015,07,01,11,52,25.10
2015,07,01,11,53,24.90
2015,07,01,11,54,24.70
2015,07,01,11,55,24.70
2015,07,01,11,56,24.80
2015,07,01,11,57,24.90
2015,07,01,11,58,25.00
2015,07,01,11,59,25.10
2015,07,01,12,00,25.20
2015,07,01,12,01,25.10
2015,07,01,12,02,25.00
2015,07,01,12,03,24.90
2015,07,01,12,04,25.00
2015,07,01,12,05,25.00
2015,07,01,12,06,25.00
2015,07,01,12,07,25.00
2015,07,01,12,08,25.00
2015,07,01,12,09,25.10
2015,07,01,12,10,25.10
2015,07,01,12,11,25.20
2015,07,01,12,12,25.30
2015,07,01,12,13,25.40
2015,07,01,12,14,25.50
2015,07,01,12,15,25.60
2015,07,01,12,16,25.60
2015,07,01,12,17,25.70
2015,07,01,12,18,25.90
2015,07,01,12,19,26.00
2015,07,01,12,20,26.10
2015,07,01,12,21,26.10
2015,07,01,12,22,26.10
2015,07,01,12,23,26.10
2015,07,01,12,24,26.00
2015,07,01,12,25,25.90
2015,07,01,12,26,25.80
2015,07,01,12,27,25.80
2015,07,01,12,28,25.80
2015,07,01,12,29,25.90
2015,07,01,12,30,26.00
2015,07,01,12,31,26.00
2015,07,01,12,32,26.10
2015,07,01,12,33,26.10
2015,07,01,12,34,26.20
2015,07,01,12,35,26.20
2015,07,01,12,36,26.30
2015,07,01,12,37,26.30
2015,07,01,12,38,26.40
2015,07,01,12,39,26.40
2015,07,01,12,40,26.40
2015,07,01,12,41,26.30
2015,07,01,12,42,26.20
2015,07,01,12,43,26.20
2015,07,01,12,44,26.10
2015,07,01,12,45,26.20
2015,07,01,12,46,26.30
2015,07,01,12,47,26.40
2015,07,01,12,48,26.50
2015,07,01,12,49,26.50
2015,07,01,12,50,26.50
2015,07,01,12,51,26.40
2015,07,01,12,52,26.30
2015,07,01,12,53,26.40
2015,07,01,12,54,26.50
2015,07,01,12,55,26.60
2015,07,01,12,56,26.70
2015,07,01,12,57,26.70
2015,07,01,12,58,26.80
2015,07,01,12,59,26.80
2015,07,01,13,00,26.80
2015,07,01,13,01,26.90
2015,07,01,13,02,26.90
2015,07,01,13,03,26.80
2015,07,01,13,04,26.90
2015,07,01,13,05,27.00
2015,07,01,13,06,27.00
2015,07,01,13,07,27.00
2015,07,01,13,08,27.10
2015,07,01,13,09,27.00
2015,07,01,13,10,27.00
2015,07,01,13,11,27.00
2015,07,01,13,12,27.10
2015,07,01,13,13,27.20
2015,07,01,13,14,27.20
2015,07,01,13,15,27.20
2015,07,01,13,16,27.20
2015,07,01,13,17,27.30
2015,07,01,13,18,27.50
2015,07,01,13,19,27.70
2015,07,01,13,20,27.70
2015,07,01,13,21,27.90
2015,07,01,13,22,28.00
2015,07,01,13,23,28.10
2015,07,01,13,24,28.30
2015,07,01,13,25,28.30
2015,07,01,13,26,28.40
2015,07,01,13,27,28.40
2015,07,01,13,28,28.40
2015,07,01,13,29,28.40
2015,07,01,13,30,28.40
2015,07,01,13,31,28.40
2015,07,01,13,32,28.40
2015,07,01,13,33,28.40
2015,07,01,13,34,28.40
2015,07,01,13,35,28.40
2015,07,01,13,36,28.50
2015,07,01,13,37,28.60
2015,07,01,13,38,28.70
2015,07,01,13,39,28.80
2015,07,01,13,40,28.90
2015,07,01,13,41,29.00
2015,07,01,13,42,29.20
2015,07,01,13,43,29.30
2015,07,01,13,44,29.50
2015,07,01,13,45,29.70
2015,07,01,13,46,29.80
2015,07,01,13,47,29.90
2015,07,01,13,48,29.90
2015,07,01,13,49,29.90
2015,07,01,13,50,29.90
2015,07,01,13,51,29.90
2015,07,01,13,52,29.80
2015,07,01,13,53,29.70
2015,07,01,13,54,29.50
2015,07,01,13,55,29.40
2015,07,01,13,56,29.30
2015,07,01,13,57,29.30
2015,07,01,13,58,29.30
2015,07,01,13,59,29.40
2015,07,01,14,00,29.40
2015,07,01,14,01,29.40
2015,07,01,14,02,29.40
2015,07,01,14,03,29.40
2015,07,01,14,04,29.40
2015,07,01,14,05,29.40
2015,07,01,14,06,29.30
2015,07,01,14,07,29.30
2015,07,01,14,08,29.20
2015,07,01,14,09,29.20
2015,07,01,14,10,29.10
2015,07,01,14,11,29.00
2015,07,01,14,12,29.00
2015,07,01,14,13,29.10
2015,07,01,14,14,29.10
2015,07,01,14,15,29.30
2015,07,01,14,16,29.40
2015,07,01,14,17,29.50
2015,07,01,14,18,29.70
2015,07,01,14,19,29.80
2015,07,01,14,20,29.90
2015,07,01,14,21,29.90
2015,07,01,14,22,29.90
2015,07,01,14,23,30.00
2015,07,01,14,24,30.00
2015,07,01,14,25,30.00
2015,07,01,14,26,29.90
2015,07,01,14,27,30.00
2015,07,01,14,28,30.00
2015,07,01,14,29,30.10
2015,07,01,14,30,30.10
2015,07,01,14,31,30.10
2015,07,01,14,32,30.10
2015,07,01,14,33,30.10
2015,07,01,14,34,30.10
2015,07,01,14,35,30.10
2015,07,01,14,36,30.10
2015,07,01,14,37,29.90
2015,07,01,14,38,29.80
2015,07,01,14,39,29.60
2015,07,01,14,40,29.50
2015,07,01,14,41,29.30
2015,07,01,14,42,29.20
2015,07,01,14,43,29.20
2015,07,01,14,44,29.10
2015,07,01,14,45,29.10
2015,07,01,14,46,29.10
2015,07,01,14,47,29.10
2015,07,01,14,48,29.20
2015,07,01,14,49,29.30
2015,07,01,14,50,29.40
2015,07,01,14,51,29.50
2015,07,01,14,52,29.60
2015,07,01,14,53,29.80
2015,07,01,14,54,29.90
2015,07,01,14,55,30.00
2015,07,01,14,56,30.10
2015,07,01,14,57,30.20
2015,07,01,14,58,30.20
2015,07,01,14,59,30.10
2015,07,01,15,00,30.00
2015,07,01,15,01,29.90
2015,07,01,15,02,29.70
2015,07,01,15,03,29.60
2015,07,01,15,04,29.60
2015,07,01,15,05,29.70
2015,07,01,15,06,29.80
2015,07,01,15,07,29.80
2015,07,01,15,08,30.00
2015,07,01,15,09,30.10
2015,07,01,15,10,30.30
2015,07,01,15,11,30.40
2015,07,01,15,12,30.50
2015,07,01,15,13,30.60
2015,07,01,15,14,30.80
2015,07,01,15,15,31.00
2015,07,01,15,16,31.30
2015,07,01,15,17,31.50
2015,07,01,15,18,31.60
2015,07,01,15,19,31.70
2015,07,01,15,20,31.80
2015,07,01,15,21,31.80
2015,07,01,15,22,31.80
2015,07,01,15,23,31.80
2015,07,01,15,24,31.80
2015,07,01,15,25,31.80
2015,07,01,15,26,31.90
2015,07,01,15,27,31.90
2015,07,01,15,28,31.80
2015,07,01,15,29,31.60
2015,07,01,15,30,31.40
2015,07,01,15,31,31.20
2015,07,01,15,32,31.00
2015,07,01,15,33,30.80
2015,07,01,15,34,30.60
2015,07,01,15,35,30.40
2015,07,01,15,36,30.30
2015,07,01,15,37,30.30
2015,07,01,15,38,30.20
2015,07,01,15,39,30.10
2015,07,01,15,40,30.00
2015,07,01,15,41,30.00
2015,07,01,15,42,30.00
2015,07,01,15,43,30.00
2015,07,01,15,44,29.90
2015,07,01,15,45,29.80
2015,07,01,15,46,29.60
2015,07,01,15,47,29.50
2015,07,01,15,48,29.40
2015,07,01,15,49,29.40
2015,07,01,15,50,29.40
2015,07,01,15,51,29.30
2015,07,01,15,52,29.20
2015,07,01,15,53,29.10
2015,07,01,15,54,29.10
2015,07,01,15,55,29.10
2015,07,01,15,56,29.20
2015,07,01,15,57,29.20
2015,07,01,15,58,29.20
2015,07,01,15,59,29.20
2015,07,01,16,00,29.20
2015,07,01,16,01,29.30
2015,07,01,16,02,29.30
2015,07,01,16,03,29.30
2015,07,01,16,04,29.40
2015,07,01,16,05,29.50
2015,07,01,16,06,29.60
2015,07,01,16,07,29.60
2015,07,01,16,08,29.60
2015,07,01,16,09,29.60
2015,07,01,16,10,29.70
2015,07,01,16,11,29.70
2015,07,01,16,12,29.70
2015,07,01,16,13,29.80
2015,07,01,16,14,29.80
2015,07,01,16,15,29.90
2015,07,01,16,16,30.00
2015,07,01,16,17,30.10
2015,07,01,16,18,30.10
2015,07,01,16,19,30.20
2015,07,01,16,20,30.10
2015,07,01,16,21,30.10
2015,07,01,16,22,30.10
2015,07,01,16,23,30.10
2015,07,01,16,24,30.10
2015,07,01,16,25,30.10
2015,07,01,16,26,30.10
2015,07,01,16,27,30.20
2015,07,01,16,28,30.20
2015,07,01,16,29,30.30
2015,07,01,16,30,30.20
2015,07,01,16,31,30.20
2015,07,01,16,32,30.20
2015,07,01,16,33,30.20
2015,07,01,16,34,30.20
2015,07,01,16,35,30.20
2015,07,01,16,36,30.20
2015,07,01,16,37,30.20
2015,07,01,16,38,30.20
2015,07,01,16,39,30.30
2015,07,01,16,40,30.30
2015,07,01,16,41,30.30
2015,07,01,16,42,30.40
2015,07,01,16,43,30.40
2015,07,01,16,44,30.50
2015,07,01,16,45,30.50
2015,07,01,16,46,30.50
2015,07,01,16,47,30.40
2015,07,01,16,48,30.50
2015,07,01,16,49,30.50
2015,07,01,16,50,30.50
2015,07,01,16,51,30.50
2015,07,01,16,52,30.60
2015,07,01,16,53,30.60
2015,07,01,16,54,30.60
2015,07,01,16,55,30.70
2015,07,01,16,56,30.70
2015,07,01,16,57,30.80
2015,07,01,16,58,30.90
2015,07,01,16,59,31.00
2015,07,01,17,00,31.00
2015,07,01,17,01,31.00
2015,07,01,17,02,31.00
2015,07,01,17,03,30.90
2015,07,01,17,04,31.00
2015,07,01,17,05,31.00
2015,07,01,17,06,31.00
2015,07,01,17,07,31.10
2015,07,01,17,08,31.10
2015,07,01,17,09,31.10
2015,07,01,17,10,31.00
2015,07,01,17,11,30.80
2015,07,01,17,12,30.80
2015,07,01,17,13,30.70
2015,07,01,17,14,30.70
2015,07,01,17,15,30.70
2015,07,01,17,16,30.70
2015,07,01,17,17,30.70
2015,07,01,17,18,30.80
2015,07,01,17,19,30.80
2015,07,01,17,20,30.80
2015,07,01,17,21,30.80
2015,07,01,17,22,30.90
2015,07,01,17,23,31.00
2015,07,01,17,24,31.00
2015,07,01,17,25,31.10
2015,07,01,17,26,31.10
2015,07,01,17,27,31.20
2015,07,01,17,28,31.30
2015,07,01,17,29,31.40
2015,07,01,17,30,31.50
2015,07,01,17,31,31.60
2015,07,01,17,32,31.60
2015,07,01,17,33,31.70
2015,07,01,17,34,31.60
2015,07,01,17,35,31.60
2015,07,01,17,36,31.40
2015,07,01,17,37,31.30
2015,07,01,17,38,31.20
2015,07,01,17,39,31.10
2015,07,01,17,40,30.90
2015,07,01,17,41,30.80
2015,07,01,17,42,30.70
2015,07,01,17,43,30.60
2015,07,01,17,44,30.50
2015,07,01,17,45,30.40
2015,07,01,17,46,30.20
2015,07,01,17,47,30.10
2015,07,01,17,48,30.10
2015,07,01,17,49,30.00
2015,07,01,17,50,29.90
2015,07,01,17,51,29.70
2015,07,01,17,52,29.60
2015,07,01,17,53,29.60
2015,07,01,17,54,29.60
2015,07,01,17,55,29.60
2015,07,01,17,56,29.60
2015,07,01,17,57,29.60
2015,07,01,17,58,29.60
2015,07,01,17,59,29.50
2015,07,01,18,00,29.40
2015,07,01,18,01,29.40
2015,07,01,18,02,29.40
2015,07,01,18,03,29.30
2015,07,01,18,04,29.30
2015,07,01,18,05,29.20
2015,07,01,18,06,29.20
2015,07,01,18,07,29.20
2015,07,01,18,08,29.30
2015,07,01,18,09,29.30
2015,07,01,18,10,29.30
2015,07,01,18,11,29.40
2015,07,01,18,12,29.40
2015,07,01,18,13,29.40
2015,07,01,18,14,29.40
2015,07,01,18,15,29.50
2015,07,01,18,16,29.50
2015,07,01,18,17,29.50
2015,07,01,18,18,29.50
2015,07,01,18,19,29.40
2015,07,01,18,20,29.40
2015,07,01,18,21,29.40
2015,07,01,18,22,29.40
2015,07,01,18,23,29.40
2015,07,01,18,24,29.40
2015,07,01,18,25,29.50
2015,07,01,18,26,29.60
2015,07,01,18,27,29.60
2015,07,01,18,28,29.60
2015,07,01,18,29,29.60
2015,07,01,18,30,29.60
2015,07,01,18,31,29.50
2015,07,01,18,32,29.50
2015,07,01,18,33,29.50
2015,07,01,18,34,29.50
2015,07,01,18,35,29.50
2015,07,01,18,36,29.40
2015,07,01,18,37,29.40
2015,07,01,18,38,29.40
2015,07,01,18,39,29.30
2015,07,01,18,40,29.30
2015,07,01,18,41,29.20
2015,07,01,18,42,29.10
2015,07,01,18,43,29.00
2015,07,01,18,44,28.90
2015,07,01,18,45,28.90
2015,07,01,18,46,28.90
2015,07,01,18,47,28.90
2015,07,01,18,48,28.90
2015,07,01,18,49,28.90
2015,07,01,18,50,28.90
2015,07,01,18,51,28.90
2015,07,01,18,52,29.00
2015,07,01,18,53,29.00
2015,07,01,18,54,28.90
2015,07,01,18,55,28.90
2015,07,01,18,56,28.90
2015,07,01,18,57,28.90
2015,07,01,18,58,29.00
2015,07,01,18,59,29.00
2015,07,01,19,00,29.10
2015,07,01,19,01,29.20
2015,07,01,19,02,29.20
2015,07,01,19,03,29.30
2015,07,01,19,04,29.30
2015,07,01,19,05,29.40
2015,07,01,19,06,29.40
2015,07,01,19,07,29.40
2015,07,01,19,08,29.30
2015,07,01,19,09,29.30
2015,07,01,19,10,29.30
2015,07,01,19,11,29.30
2015,07,01,19,12,29.20
2015,07,01,19,13,29.30
2015,07,01,19,14,29.30
2015,07,01,19,15,29.30
2015,07,01,19,16,29.30
2015,07,01,19,17,29.20
2015,07,01,19,18,29.30
2015,07,01,19,19,29.20
2015,07,01,19,20,29.20
2015,07,01,19,21,29.20
2015,07,01,19,22,29.20
2015,07,01,19,23,29.20
2015,07,01,19,24,29.10
2015,07,01,19,25,29.10
2015,07,01,19,26,29.10
2015,07,01,19,27,29.10
2015,07,01,19,28,29.10
2015,07,01,19,29,29.00
2015,07,01,19,30,29.00
2015,07,01,19,31,28.90
2015,07,01,19,32,28.90
2015,07,01,19,33,28.90
2015,07,01,19,34,28.90
2015,07,01,19,35,28.90
2015,07,01,19,36,28.90